Home   Weather   Landshut   Past weeks

Flag for Germany Past Weather in Landshut, Bavaria, Germany — Yesterday and Last 2 Weeks

Now
43 °F

Snow. Overcast.


Feels Like: 43 °F
Forecast: 48 / 68 °F
Wind: 1 mph from North

Location: Munich / Franz Josef Strauss Airport

Current Time: Sep 27, 2016 at 5:46:19 AM

Latest Report: Sep 27, 2016 at 5:20 AM


Visibility: 3 mi

Pressure: 30.21 "Hg

Humidity: 100%

Dew Point: 43 °F

Location of LandshutLocation

Past Weather in Landshut — Graph

°F

Landshut Temperature Yesterday

Maximum temperature yesterday: 72 °F (at 3:20 PM)
Minimum temperature yesterday: 43 °F (at 4:20 AM)
Average temperature yesterday: 56 °F

High & Low Weather Summary for the Past Weeks

 TemperatureHumidityPressure
High82 °F (Sep 12, 3:20 PM)100% (Sep 12, 4:20 AM)30.36 "Hg (Sep 12, 4:20 AM)
Low37 °F (Sep 21, 5:50 AM)30% (Sep 15, 4:50 PM)29.86 "Hg (Sep 15, 2:50 PM)
Average58 °F84%30.07 "Hg
* Reported Sep 12 4:20 AM — Sep 27 4:50 AM, Landshut, Weather by CustomWeather, © 2016

Note: Actual official high and low records may vary slightly from our data, if they occured in-between our weather recording intervals... More about our weather records

Advertising

Landshut Weather History for the Previous 24 Hours

Scroll right to see more
 ConditionsComfort  
Time TempWeatherWind HumidityBarometerVisibility
4:50 AM
Tue, Sep 27
43 °FSnow. Overcast.1 mph100%30.21 "Hg3 mi
4:20 AM43 °FSnow. Overcast.1 mph100%30.18 "Hg3 mi
3:50 AM45 °FRain. Overcast.1 mph100%30.18 "Hg5 mi
3:20 AM45 °FFog.3 mph100%30.18 "Hg5 mi
2:50 AM45 °FFog.1 mph100%30.18 "HgN/A
2:20 AM46 °FFog.1 mph100%30.18 "HgN/A
1:50 AM45 °FFog.1 mph100%30.18 "HgN/A
1:20 AM46 °FFog.No wind100%30.18 "HgN/A
12:50 AM46 °FFog.1 mph100%30.18 "HgN/A
12:20 AM46 °FCool.1 mph100%30.18 "HgN/A
11:50 PM
Mon, Sep 26
48 °FFog.2 mph100%30.18 "HgN/A
11:20 PM50 °FFog.1 mph100%30.18 "HgN/A
10:50 PM50 °FFog.1 mph100%30.18 "HgN/A
10:20 PM52 °FClear.1 mph100%30.18 "Hg10 mi
9:50 PM52 °FClear.2 mph100%30.18 "Hg10 mi
9:20 PM54 °FClear.No wind94%30.18 "Hg10 mi
8:50 PM54 °FClear.1 mph100%30.18 "Hg10 mi
8:20 PM55 °FClear.2 mph94%30.15 "Hg10 mi
7:50 PM59 °FClear.2 mph82%30.15 "Hg10 mi
7:20 PM63 °FPassing clouds.2 mph73%30.15 "HgN/A
6:50 PM66 °FPassing clouds.3 mph60%30.15 "HgN/A
6:20 PM68 °FPassing clouds.2 mph56%30.15 "HgN/A
5:50 PM68 °FPassing clouds.3 mph56%30.15 "HgN/A
5:20 PM70 °FPassing clouds.5 mph53%30.15 "HgN/A
4:50 PM70 °FPassing clouds.3 mph53%30.15 "HgN/A
4:20 PM72 °FPassing clouds.3 mph53%30.15 "HgN/A
3:50 PM72 °FPassing clouds.3 mph50%30.15 "HgN/A
3:20 PM72 °FScattered clouds.2 mph50%30.15 "HgN/A
2:50 PM70 °FScattered clouds.3 mph53%30.15 "HgN/A
2:20 PM70 °FPassing clouds.3 mph53%30.18 "HgN/A
1:50 PM68 °FPassing clouds.3 mph56%30.18 "HgN/A
1:20 PM68 °FPassing clouds.2 mph56%30.18 "HgN/A
12:50 PM68 °FPassing clouds.3 mph60%30.18 "HgN/A
12:20 PM68 °FSunny.2 mph56%30.18 "Hg10 mi
11:50 AM66 °FSunny.2 mph60%30.18 "Hg10 mi
11:20 AM64 °FPassing clouds.3 mph64%30.18 "HgN/A
10:50 AM63 °FPassing clouds.3 mph68%30.18 "HgN/A
10:20 AM61 °FPassing clouds.5 mph72%30.18 "HgN/A
9:50 AM57 °FSunny.6 mph88%30.18 "Hg10 mi
9:20 AM55 °FSunny.7 mph88%30.18 "Hg10 mi
8:50 AM52 °FSunny.7 mph94%30.18 "Hg10 mi
8:20 AM50 °FPassing clouds.3 mph100%30.18 "HgN/A
7:50 AM48 °FPassing clouds.5 mph100%30.18 "HgN/A
7:20 AM46 °FFog.1 mph100%30.18 "Hg6 mi
6:50 AM43 °FLight fog.3 mph100%30.18 "Hg6 mi
6:20 AM43 °FLight fog.1 mph100%30.18 "Hg4 mi
5:50 AM46 °FFog.2 mph100%30.18 "Hg3 mi
5:20 AM43 °FQuite cool.2 mph100%30.18 "Hg3 mi
Weather by CustomWeather, © 2016

See weather overviewHow to use our weather pages